Time,TemperatureF,DewpointF,PressureIn,WindDirection,WindDirectionDegrees,WindSpeedMPH,WindSpeedGustMPH,Humidity,HourlyPrecipIn,Conditions,Clouds,dailyrainin,SoftwareType,DateUTC
2013-07-19 00:12:00,79.0,74.0,-100.00,SE,145,0.0,0.0,86,0.00,,,-99.99,,2013-07-19 04:12:00,
2013-07-19 00:22:00,78.0,74.0,-100.00,West,270,2.0,3.0,88,0.00,,,-99.99,,2013-07-19 04:22:00,
2013-07-19 00:33:00,78.0,74.0,-100.00,West,270,2.0,2.0,89,0.00,,,-99.99,,2013-07-19 04:33:00,
2013-07-19 00:44:00,76.0,74.0,-100.00,West,260,1.0,2.0,92,0.00,,,-99.99,,2013-07-19 04:44:00,
2013-07-19 01:02:00,77.0,74.0,-100.00,West,270,1.0,2.0,93,0.00,,,-99.99,,2013-07-19 05:02:00,
2013-07-19 01:11:00,76.0,74.0,-100.00,West,270,0.0,1.0,93,0.00,,,-99.99,,2013-07-19 05:11:00,
2013-07-19 01:22:00,77.0,74.0,-100.00,North,5,0.0,2.0,91,0.00,,,-99.99,,2013-07-19 05:22:00,
2013-07-19 01:32:00,76.0,74.0,-100.00,North,0,0.0,1.0,92,0.00,,,-99.99,,2013-07-19 05:32:00,
2013-07-19 01:53:00,75.0,74.0,-100.00,West,275,1.0,1.0,94,0.00,,,-99.99,,2013-07-19 05:53:00,
2013-07-19 02:01:00,75.0,73.0,-100.00,West,280,1.0,2.0,94,0.00,,,-99.99,,2013-07-19 06:01:00,
2013-07-19 02:11:00,75.0,73.0,-100.00,WNW,285,0.0,1.0,95,0.00,,,-99.99,,2013-07-19 06:11:00,
2013-07-19 02:22:00,75.0,73.0,-100.00,West,265,1.0,2.0,94,0.00,,,-99.99,,2013-07-19 06:22:00,
2013-07-19 02:33:00,75.0,73.0,-100.00,West,270,1.0,2.0,93,0.00,,,-99.99,,2013-07-19 06:33:00,
2013-07-19 02:43:00,75.0,73.0,-100.00,West,280,1.0,2.0,93,0.00,,,-99.99,,2013-07-19 06:43:00,
2013-07-19 03:32:00,75.0,73.0,-100.00,West,280,1.0,1.0,94,0.00,,,-99.99,,2013-07-19 07:32:00,
2013-07-19 03:43:00,75.0,73.0,-100.00,West,280,0.0,1.0,94,0.00,,,-99.99,,2013-07-19 07:43:00,
2013-07-19 03:53:00,74.0,73.0,-100.00,WNW,285,1.0,2.0,94,0.00,,,-99.99,,2013-07-19 07:53:00,
2013-07-19 04:01:00,74.0,73.0,-100.00,West,280,1.0,2.0,94,0.00,,,-99.99,,2013-07-19 08:01:00,
2013-07-19 04:12:00,74.0,73.0,-100.00,WSW,250,1.0,2.0,95,0.00,,,-99.99,,2013-07-19 08:12:00,
2013-07-19 04:22:00,74.0,73.0,-100.00,West,265,1.0,3.0,94,0.00,,,-99.99,,2013-07-19 08:22:00,
2013-07-19 04:33:00,74.0,73.0,-100.00,West,275,1.0,2.0,94,0.00,,,-99.99,,2013-07-19 08:33:00,
2013-07-19 04:43:00,75.0,73.0,-100.00,WSW,255,2.0,3.0,93,0.00,,,-99.99,,2013-07-19 08:43:00,
2013-07-19 04:52:00,75.0,73.0,-100.00,West,275,2.0,3.0,93,0.00,,,-99.99,,2013-07-19 08:52:00,
2013-07-19 06:01:00,74.0,72.0,-100.00,WSW,240,1.0,2.0,93,0.00,,,-99.99,,2013-07-19 10:01:00,
2013-07-19 06:11:00,74.0,72.0,-100.00,SSW,210,2.0,3.0,92,0.00,,,-99.99,,2013-07-19 10:11:00,
2013-07-19 06:22:00,74.0,72.0,-100.00,West,270,2.0,4.0,93,0.00,,,-99.99,,2013-07-19 10:22:00,
2013-07-19 06:32:00,74.0,72.0,-100.00,WSW,240,1.0,4.0,93,0.00,,,-99.99,,2013-07-19 10:32:00,
2013-07-19 06:43:00,74.0,72.0,-100.00,WSW,240,3.0,5.0,93,0.00,,,-99.99,,2013-07-19 10:43:00,
2013-07-19 07:12:00,75.0,72.0,-100.00,WSW,245,2.0,4.0,92,0.00,,,-99.99,,2013-07-19 11:12:00,
2013-07-19 07:22:00,74.0,72.0,-100.00,West,270,2.0,3.0,92,0.00,,,-99.99,,2013-07-19 11:22:00,
2013-07-19 07:33:00,75.0,73.0,-100.00,West,265,2.0,4.0,93,0.00,,,-99.99,,2013-07-19 11:33:00,
2013-07-19 07:43:00,76.0,73.0,-100.00,WSW,240,4.0,6.0,90,0.00,,,-99.99,,2013-07-19 11:43:00,
2013-07-19 08:01:00,76.0,73.0,-100.00,SW,220,4.0,6.0,90,0.00,,,-99.99,,2013-07-19 12:01:00,
2013-07-19 08:43:00,78.0,74.0,-100.00,SW,215,6.0,7.0,87,0.00,,,-99.99,,2013-07-19 12:43:00,
2013-07-19 10:02:00,82.0,75.0,-100.00,SW,235,7.0,10.0,81,0.00,,,-99.99,,2013-07-19 14:02:00,
2013-07-19 10:12:00,82.0,75.0,-100.00,SW,230,6.0,9.0,78,0.00,,,-99.99,,2013-07-19 14:12:00,
2013-07-19 10:22:00,82.0,75.0,-100.00,SW,235,6.0,11.0,78,0.00,,,-99.99,,2013-07-19 14:22:00,
2013-07-19 10:33:00,83.0,75.0,-100.00,WSW,245,8.0,12.0,78,0.00,,,-99.99,,2013-07-19 14:33:00,
2013-07-19 10:43:00,84.0,75.0,-100.00,WSW,245,6.0,11.0,75,0.00,,,-99.99,,2013-07-19 14:43:00,
2013-07-19 11:02:00,84.0,75.0,-100.00,SW,235,7.0,12.0,74,0.00,,,-99.99,,2013-07-19 15:02:00,
2013-07-19 11:43:00,86.0,75.0,-100.00,SW,235,12.0,16.0,70,0.00,,,-99.99,,2013-07-19 15:43:00,
2013-07-19 12:01:00,86.0,74.0,-100.00,SW,225,9.0,14.0,68,0.00,,,-99.99,,2013-07-19 16:01:00,
2013-07-19 12:11:00,87.0,76.0,-100.00,WSW,245,7.0,14.0,71,0.00,,,-99.99,,2013-07-19 16:11:00,
2013-07-19 12:22:00,87.0,75.0,-100.00,SW,235,7.0,13.0,69,0.00,,,-99.99,,2013-07-19 16:22:00,
2013-07-19 12:32:00,87.0,76.0,-100.00,West,270,7.0,16.0,71,0.00,,,-99.99,,2013-07-19 16:32:00,
2013-07-19 12:43:00,87.0,75.0,-100.00,WSW,240,9.0,17.0,68,0.00,,,-99.99,,2013-07-19 16:43:00,
2013-07-19 13:12:00,88.0,75.0,-100.00,WSW,245,14.0,19.0,65,0.00,,,-99.99,,2013-07-19 17:12:00,
2013-07-19 13:22:00,89.0,76.0,-100.00,SW,215,9.0,14.0,65,0.00,,,-99.99,,2013-07-19 17:22:00,
2013-07-19 13:32:00,88.0,74.0,-100.00,SW,215,12.0,18.0,64,0.00,,,-99.99,,2013-07-19 17:32:00,
2013-07-19 13:43:00,87.0,75.0,-100.00,WSW,245,8.0,16.0,66,0.00,,,-99.99,,2013-07-19 17:43:00,
2013-07-19 14:01:00,89.0,75.0,-100.00,WSW,240,12.0,19.0,64,0.00,,,-99.99,,2013-07-19 18:01:00,
2013-07-19 14:11:00,89.0,74.0,-100.00,SW,230,10.0,17.0,63,0.00,,,-99.99,,2013-07-19 18:11:00,
2013-07-19 14:22:00,88.0,74.0,-100.00,SW,225,11.0,16.0,64,0.00,,,-99.99,,2013-07-19 18:22:00,
2013-07-19 14:32:00,88.0,75.0,-100.00,SSW,210,10.0,16.0,64,0.00,,,-99.99,,2013-07-19 18:32:00,
2013-07-19 14:42:00,89.0,76.0,-100.00,SW,235,10.0,19.0,67,0.00,,,-99.99,,2013-07-19 18:42:00,
2013-07-19 15:11:00,89.0,75.0,-100.00,SW,220,13.0,18.0,65,0.00,,,-99.99,,2013-07-19 19:11:00,
2013-07-19 15:22:00,89.0,76.0,-100.00,SW,235,11.0,18.0,64,0.00,,,-99.99,,2013-07-19 19:22:00,
2013-07-19 15:32:00,89.0,75.0,-100.00,SW,225,11.0,19.0,63,0.00,,,-99.99,,2013-07-19 19:32:00,
2013-07-19 15:43:00,88.0,74.0,-100.00,West,280,6.0,16.0,64,0.00,,,-99.99,,2013-07-19 19:43:00,
2013-07-19 16:43:00,78.0,73.0,-100.00,SE,135,5.0,8.0,83,6.22,,,-99.99,,2013-07-19 20:43:00,
2013-07-19 18:01:00,78.0,72.0,-100.00,SE,125,3.0,8.0,79,0.00,,,-99.99,,2013-07-19 22:01:00,
2013-07-19 18:11:00,78.0,72.0,-100.00,SSE,160,3.0,7.0,80,0.00,,,-99.99,,2013-07-19 22:11:00,
2013-07-19 18:21:00,78.0,72.0,-100.00,ESE,120,4.0,9.0,81,0.00,,,-99.99,,2013-07-19 22:21:00,
2013-07-19 18:32:00,78.0,72.0,-100.00,SE,135,3.0,7.0,83,0.00,,,-99.99,,2013-07-19 22:32:00,
2013-07-19 18:43:00,78.0,72.0,-100.00,SE,135,4.0,7.0,82,0.00,,,-99.99,,2013-07-19 22:43:00,
2013-07-19 19:01:00,78.0,72.0,-100.00,ESE,120,3.0,9.0,81,0.00,,,-99.99,,2013-07-19 23:01:00,
2013-07-19 19:21:00,79.0,71.0,-100.00,SSE,160,6.0,10.0,77,0.00,,,-99.99,,2013-07-19 23:21:00,
2013-07-19 19:43:00,79.0,72.0,-100.00,SSE,165,6.0,12.0,77,0.00,,,-99.99,,2013-07-19 23:43:00,
2013-07-19 19:52:00,79.0,72.0,-100.00,South,190,5.0,12.0,79,0.00,,,-99.99,,2013-07-19 23:52:00,
2013-07-19 20:01:00,78.0,71.0,-100.00,South,190,6.0,12.0,78,0.00,,,-99.99,,2013-07-20 00:01:00,
2013-07-19 20:11:00,78.0,71.0,-100.00,South,190,6.0,12.0,78,0.00,,,-99.99,,2013-07-20 00:11:00,
2013-07-19 20:22:00,77.0,70.0,-100.00,SSW,205,7.0,13.0,80,0.00,,,-99.99,,2013-07-20 00:22:00,
2013-07-19 20:32:00,77.0,70.0,-100.00,SSW,205,7.0,13.0,80,0.00,,,-99.99,,2013-07-20 00:32:00,
2013-07-19 20:43:00,77.0,71.0,-100.00,SSW,205,6.0,9.0,83,0.00,,,-99.99,,2013-07-20 00:43:00,
2013-07-19 20:52:00,76.0,71.0,-100.00,SSW,195,7.0,12.0,84,0.00,,,-99.99,,2013-07-20 00:52:00,
2013-07-19 21:01:00,76.0,71.0,-100.00,SSW,205,7.0,12.0,85,0.00,,,-99.99,,2013-07-20 01:01:00,
2013-07-19 21:11:00,76.0,71.0,-100.00,SSW,200,6.0,12.0,86,0.00,,,-99.99,,2013-07-20 01:11:00,
2013-07-19 21:22:00,76.0,72.0,-100.00,SSW,205,6.0,9.0,87,0.00,,,-99.99,,2013-07-20 01:22:00,
2013-07-19 21:32:00,76.0,72.0,-100.00,SSW,205,6.0,9.0,87,0.00,,,-99.99,,2013-07-20 01:32:00,
2013-07-19 21:52:00,76.0,72.0,-100.00,SSW,200,9.0,13.0,89,0.00,,,-99.99,,2013-07-20 01:52:00,
2013-07-19 22:02:00,75.0,72.0,-100.00,SSW,205,5.0,9.0,89,0.00,,,-99.99,,2013-07-20 02:02:00,
2013-07-19 22:33:00,75.0,72.0,-100.00,SSW,205,6.0,12.0,89,0.00,,,-99.99,,2013-07-20 02:33:00,
2013-07-19 22:43:00,75.0,72.0,-100.00,SSW,205,5.0,9.0,88,0.00,,,-99.99,,2013-07-20 02:43:00,
2013-07-19 23:02:00,75.0,71.0,-100.00,SSW,195,6.0,10.0,87,0.00,,,-99.99,,2013-07-20 03:02:00,
2013-07-19 23:44:00,74.0,71.0,-100.00,SW,220,6.0,12.0,88,0.00,,,-99.99,,2013-07-20 03:44:00,